Location: Roc des P�zouls
(43.9667°N, 3.5500°E)
Time: 06:17:27
(UTC+00:00)

Cosmos 1898 Rocket - Pass Details

Date: 14 November 2019
Orbit: 753 x 785 km, 74.0° (Epoch: 09 December)

Event Time Altitude Azimuth Distance (km) Brightness Sun altitude
Rises 05:25:15 0° 217° (SW) 3,208 6.5 -13.4°
Reaches altitude 10° 05:27:42 10° 224° (SW) 2,292 5.7 -12.9°
Maximum altitude 05:32:40 45° 296° (WNW) 1,043 3.8 -12.1°
Drops below altitude 10° 05:37:44 10° 9° (N) 2,327 6.0 -11.2°
Sets 05:40:14 0° 16° (NNE) 3,263 6.8 -10.7°
